Location: ?????
(37.7324°N, 23.9257°E)
Time: 06:55:49
(UTC+00:00)

Cosmos 158 Rocket - Pass Details

Date: 29 November 2020
Orbit: 698 x 793 km, 74.0° (Epoch: 17 January)

Event Time Altitude Azimuth Distance (km) Brightness Sun altitude
Exits shadow 04:10:44 15° 319° (NW) 1,877 5.5 -13.4°
Maximum altitude 04:14:19 36° 259° (WSW) 1,129 4.4 -12.7°
Drops below altitude 10° 04:18:52 10° 193° (SSW) 2,217 6.5 -11.8°
Sets 04:21:22 0° 185° (S) 3,150 7.4 -11.4°
